Location: Casco Millpond
(44.5581°N, 87.6111°W)
Time: 22:41:00
(UTC+00:00)

AQUARIUS - Pass Details

Date: 16 January 2026
Orbit: 633 x 636 km, 98.0° (Epoch: 13 February)

Event Time Altitude Azimuth Distance (km) Brightness Sun altitude
Rises 23:11:05 0° 152° (SSE) 2,922 7.5 -6.1°
Reaches altitude 10° 23:13:19 10° 147° (SSE) 2,018 6.6 -6.5°
Maximum altitude 23:17:34 50° 72° (ENE) 812 4.3 -7.2°
Drops below altitude 10° 23:21:51 10° 357° (N) 2,033 6.5 -7.9°
Sets 23:24:06 0° 352° (N) 2,945 7.4 -8.3°
